{"data":{"norad_id":43867,"epoch":"2026-09-20T03:34:03.697824Z","epoch_age_seconds":38109,"freshness":"FRESH","line1":"1 43867U 18107A   26263.14865391 -.00000044  00000+0  00000+0 0  9998","line2":"2 43867   0.0142 131.8581 0000375  83.1905 267.5137  1.00276022 28400","mean_motion":1.00276022,"eccentricity":3.75e-5,"inclination_deg":0.0142,"raan_deg":131.8581,"arg_perigee_deg":83.1905,"mean_anomaly_deg":267.5137,"bstar":0,"rev_number":2840,"period_min":1436.0362240935,"perigee_km":35783.826085198,"apogee_km":35786.988351015,"semimajor_km":42163.544218107,"source":"CELESTRAK","updated_at":"2026-09-20T09:00:35.264541Z"}}